User: anonymous   Login
Location: Lawrence Hall of Science
(37.8785°N, 122.2415°W)
Time: 10:04:01
(UTC-07:00)
Language:

Cosmos 1461 - Orbit

View from above orbital plane
View from above orbital plane
View from above satellite
View from above satellite

Ground track
Ground track

The orbit data is extracted from the following two-line orbital elements,

1 14064U 83044A   16271.82257529  .00001624  00000-0  15665-3 0  9990
2 14064  65.0030  16.2952 0095735 159.0393 201.4690 14.93235789684174
Epoch (UTC): 27 September 2016 19:44:30
Eccentricity: 0.0095735
inclination: 65.0030°
perigee height: 521 km
apogee height: 654 km
right ascension of ascending node: 16.2952°
argument of perigee: 159.0393°
revolutions per day: 14.93235789
mean anomaly at epoch: 201.4690°
orbit number at epoch: 68417

The dashed part of the orbit path shows where the satellite is in the earth's shadow,  

DLR